Weather in Karabulak

Russia / Chelyabinsk Oblast     52°53′34″N   59°09′17″E
temp.,
°C
wind,
m/s
gust,
m/s
humid.,
%
clouds,
%
prec.,
mm/h
press.,
hPa
HPBL,
m
13 may, thu
thu1323:00+17wsw22340 0.0 102712
02:00+15wsw33400 0.0 102722
05:00+13w22470 0.0 102811
08:00+18w22361 0.0 1028160
11:00+23wsw22245 0.0 10271163
14:00+26ssw11205 0.0 10272232
17:00+26wsw21205 0.0 10262392
20:00+23w36334 0.0 102595
14 may, fri
fri1423:00+19w22335 0.0 102612
02:00+17w22385 0.0 102616
05:00+16nw11441 0.0 102711
08:00+20w22390 0.0 1028155
11:00+25wsw33260 0.0 10271241
14:00+28sw44221 0.0 10262575
17:00+27wsw54220 0.0 10262454
20:00+24wsw33300 0.0 102537
15 may, sat
sat1523:00+19w48410 0.0 1026106
02:00+18nw334614 0.0 102528
05:00+16wnw11500 0.0 102611
08:00+20wnw11400 0.0 1026160
11:00+25wsw22284 0.0 10251345
14:00+28w22205 0.0 10242332
17:00+28nw22190 0.0 10232733
20:00+25wnw11280 0.0 102211
16 may, sun
sun1623:00+20wsw33301 0.0 102219
02:00+18w11455 0.0 102211
05:00+16nnw22490 0.0 102311
08:00+21n11430 0.0 1023182
11:00+27nw10300 0.0 10221026
14:00+29wsw22221 0.0 10212901
17:00+29w53225 0.0 10203336
20:00+25wsw48331 0.0 1019170
17 may, mon
mon1723:00+21wnw46415 0.0 102091
02:00+19wnw34500 0.0 102045
05:00+18nw11514 0.0 102011
08:00+22wsw23435 0.0 1020233
11:00+27w34305 0.0 10191309
14:00+28w442680 0.0 10183057
17:00+28n442424 0.0 10172550
20:00+23nw363846 0.3 1017117